DW9443 Weather Reports


Display with metric or nautical units.
time (UTC)temp
F
wind
direction
speed
MPH
gust
MPH
rain 1hr
in
rain 24hr
in
rain mn
in
humidity
%
barometer
mb
20181023033055 42 39 1.0 0.0 0.00 0.00 0.00 76 994.0
20181023031615 41 39 0.0 0.0 0.00 0.00 0.00 76 994.2
20181023030106 41 38 0.0 0.0 0.00 0.00 0.00 76 994.5
20181023024625 42 39 0.0 0.0 0.00 0.00 0.00 75 994.5
20181023023056 43 31 3.0 0.0 0.00 0.00 0.00 74 994.4
20181023021603 43 336 2.0 0.0 0.00 0.00 0.00 75 994.4
20181023020126 43 326 1.0 0.0 0.00 0.00 0.00 72 994.7
20181023014545 44 327 0.0 0.0 0.00 0.00 0.00 67 994.9
20181023013100 45 327 0.0 0.0 0.00 0.00 0.00 69 995.1
20181023011616 45 327 1.0 0.0 0.00 0.00 0.00 70 995.2
20181023010128 44 327 0.0 0.0 0.00 0.00 0.00 75 995.3
20181023004553 42 327 3.0 0.0 0.00 0.00 0.00 79 995.4
20181023003123 43 326 3.0 0.0 0.00 0.00 0.00 76 995.7
20181023001610 45 326 3.0 0.0 0.00 0.00 0.00 74 996.0
20181023000030 45 5 1.0 0.0 0.00 0.00 0.00 70 996.1
20181022234611 45 5 1.0 0.0 0.00 0.00 0.00 73 996.2
20181022233044 44 10 2.0 0.0 0.00 0.00 0.00 71 996.2
20181022231620 44 15 1.0 0.0 0.00 0.00 0.00 74 996.3
20181022230026 44 20 0.0 0.0 0.00 0.00 0.00 77 996.5
20181022224614 45 20 1.0 0.0 0.00 0.00 0.00 70 996.8
20181022223050 45 24 1.0 0.0 0.00 0.00 0.00 70 997.0
20181022221530 44 27 0.0 0.0 0.00 0.00 0.00 72 997.2
20181022220030 43 27 0.0 0.0 0.00 0.00 0.00 72 997.6
20181022214509 43 27 0.0 0.0 0.00 0.00 0.00 70 997.7
20181022213015 43 27 0.0 0.0 0.00 0.00 0.00 70 998.0
20181022211505 42 27 0.0 0.0 0.00 0.00 0.00 71 998.0
20181022210011 42 27 0.0 0.0 0.00 0.00 0.00 73 998.0
20181022204501 42 27 0.0 0.0 0.00 0.00 0.00 72 998.2
20181022201653 42 27 0.0 0.0 0.00 0.00 0.00 73 998.4
20181022200139 42 27 0.0 0.0 0.00 0.00 0.00 72 998.6
20181022194637 42 27 1.0 0.0 0.00 0.00 0.00 72 998.5
20181022193124 0 0.0 0.0 0.00 0.00 0.00 998.7
20181022191630 0 0.0 0.0 0.00 0.00 0.00 998.8
20181022190143 0 0.0 0.0 0.00 0.00 0.00 998.9
20181022184740 0 0.0 0.0 0.00 0.00 0.00 999.1
20181022183117 0 0.0 0.0 0.00 0.00 0.00 999.1
20181022181630 0 0.0 0.0 0.00 0.00 0.00 999.2
20181022180046 0 0.0 0.0 0.00 0.00 0.00 999.1
20181022174611 0 0.0 0.0 0.00 0.00 0.00 999.2
20181022173031 0 0.0 0.0 0.00 0.00 0.00 999.2
20181022171519 0 0.0 0.0 0.00 0.00 0.00 999.2
20181022170012 0 0.0 0.0 0.00 0.00 0.00 999.3
20181022164507 0 0.0 0.0 0.00 0.00 0.00 999.1
20181022163001 0 0.0 0.0 0.00 0.00 0.00 999.2
20181022161733 0 0.0 0.0 0.00 0.00 0.00 999.1
20181022160159 0 0.0 0.0 0.00 0.00 0.00 999.4
20181022154604 0 0.0 0.0 0.00 0.00 0.00 999.4
20181022153129 0 0.0 0.0 0.00 0.00 0.00 999.2
20181022151627 0 0.0 0.0 0.00 0.00 0.00 999.4
20181022150105 0 0.0 0.0 0.00 0.00 0.00 999.4
20181022144534 0 0.0 0.0 0.00 0.00 0.00 999.3
20181022143044 0 0.0 0.0 0.00 0.00 0.00 999.2
20181022141552 0 0.0 0.0 0.00 0.00 0.00 999.2
20181022140046 0 0.0 0.0 0.00 0.00 0.00 999.1
20181022134514 0 0.0 0.0 0.00 0.00 0.00 999.2
20181022133021 0 0.0 0.0 0.00 0.00 0.00 999.2
20181022131510 0 0.0 0.0 0.00 0.00 0.00 999.2
20181022130339 0 0.0 0.0 0.00 0.00 0.00 999.4
20181022125027 0 0.0 0.0 0.00 0.00 0.00 999.5
20181022123744 0 0.0 0.0 0.00 0.00 0.00 999.4
20181022121636 0 0.0 0.0 0.00 0.00 0.00 999.5
20181022120120 0 0.0 0.0 0.00 0.00 0.00 999.2
20181022114549 0 0.0 0.0 0.00 0.00 0.00 999.2
20181022113040 0 0.0 0.0 0.00 0.00 0.00 999.5
20181022111601 0 0.0 0.0 0.00 0.00 0.00 999.4
20181022110048 43 52 4.0 0.0 0.00 0.00 0.00 68 999.5
20181022104531 44 65 4.0 0.0 0.00 0.00 0.00 68 999.4
20181022103136 43 80 3.0 0.0 0.00 0.00 0.00 68 999.4
20181022101541 42 80 1.0 0.0 0.00 0.00 0.00 71 999.6
20181022100039 43 5 3.0 0.0 0.00 0.00 0.00 70 999.5
20181022094631 43 78 4.0 0.0 0.00 0.00 0.00 70 999.6
20181022093056 43 99 6.0 0.0 0.00 0.00 0.00 69 999.7
20181022091522 43 127 4.0 0.0 0.00 0.00 0.00 69 999.6
20181022090024 44 98 5.0 0.0 0.00 0.00 0.00 69 999.4
20181022084545 43 115 7.0 0.0 0.00 0.00 0.00 70 999.4
20181022083042 43 103 3.0 0.0 0.00 0.00 0.00 72 999.5
20181022081531 43 115 3.0 0.0 0.00 0.00 0.00 73 999.4
20181022080014 44 115 9.0 0.0 0.00 0.00 0.00 71 999.3
20181022074515 44 103 4.0 0.0 0.00 0.00 0.00 71 999.2
20181022073012 43 95 5.0 0.0 0.00 0.00 0.00 72 998.9
20181022071512 43 115 1.0 0.0 0.00 0.00 0.00 72 998.9
20181022070009 43 107 4.0 0.0 0.00 0.00 0.00 72 998.8
20181022064508 43 121 5.0 0.0 0.00 0.00 0.00 74 998.8
20181022063024 43 233 0.0 0.0 0.00 0.00 0.00 75 998.9
20181022061512 44 292 2.0 0.0 0.00 0.00 0.00 72 998.7
20181022060007 43 288 3.0 0.0 0.00 0.00 0.00 75 998.4
20181022054513 43 246 3.0 0.0 0.00 0.00 0.00 76 998.6
20181022053006 43 94 0.0 0.0 0.00 0.00 0.00 75 998.3
20181022051503 43 94 0.0 0.0 0.00 0.00 0.00 77 998.2
20181022050002 44 94 0.0 0.0 0.00 0.00 0.00 71 998.1
20181022044511 44 104 1.0 0.0 0.00 0.00 0.00 71 998.0
20181022043002 44 121 3.0 0.0 0.00 0.00 0.00 72 998.1
20181022041748 44 24 0.0 0.0 0.00 0.00 0.00 68 998.3
20181022040150 44 26 2.0 0.0 0.00 0.00 0.00 68 998.1
20181022034726 44 54 2.0 0.0 0.00 0.00 0.00 68 998.0